EW5134 Weather Reports


time (UTC)temp
C
wind
direction
speed
KPH
gust
KPH
rain 1hr
cm
rain 24hr
cm
rain mn
cm
humidity
%
barometer
mb
20260505095548 14 188 8.0 17.7 0.00 0.00 0.05 78 1005.7
20260505092645 13 172 6.4 12.9 0.00 0.00 0.05 80 1005.7
20260505091038 13 211 6.4 16.1 0.03 0.05 0.05 82 1005.7
20260505085540 13 177 3.2 9.7 0.03 0.05 0.05 85 1005.6
20260505084038 13 172 1.6 4.8 0.03 0.05 0.05 85 1005.8
20260505082539 13 198 0.0 9.7 0.03 0.05 0.05 85 1005.8
20260505081039 14 194 8.0 32.2 0.00 0.03 0.03 83 1006.1
20260505080250 15 213 9.7 29.0 0.00 0.03 0.03 77 1006.5
20260505074039 14 183 6.4 16.1 0.00 0.03 0.03 78 1006.1
20260505072542 13 232 4.8 17.7 0.03 0.03 0.03 82 1006.1
20260505071038 13 194 4.8 16.1 0.03 0.03 0.03 85 1006.3
20260505065539 12 165 1.6 3.2 0.03 0.03 0.03 88 1006.3
20260505064037 13 182 1.6 4.8 0.03 0.03 0.03 85 1006.2
20260505062540 13 124 3.2 20.9 0.00 0.00 0.00 80 1006.2
20260505061037 15 324 8.0 30.6 0.00 0.00 0.00 71 1007.2
20260505060940 15 202 6.4 14.5 0.00 0.00 0.00 70 1006.3
20260505054039 16 270 11.3 25.7 0.00 0.00 0.00 67 1006.3
20260505053237 16 203 8.0 19.3 0.00 0.00 0.00 62 1006.1
20260505051034 16 175 8.0 20.9 0.00 0.00 0.00 61 1006.1
20260505041031 16 201 8.0 19.3 0.00 0.00 0.00 61 1005.9
20260505035529 16 201 6.4 22.5 0.00 0.00 0.00 61 1005.8
20260505034030 16 186 6.4 19.3 0.00 0.00 0.00 60 1005.7
20260505033228 16 172 8.0 19.3 0.00 0.00 0.00 59 1005.9
20260505031029 16 181 6.4 17.7 0.00 0.00 0.00 59 1005.9
20260505025515 16 161 8.0 17.7 0.00 0.00 0.00 58 1005.8
20260505024011 16 198 6.4 14.5 0.00 0.00 0.00 59 1005.9
20260505022515 16 153 6.4 14.5 0.00 0.00 0.00 59 1006.0
20260505021008 16 190 6.4 16.1 0.00 0.00 0.00 59 1006.1
20260505020202 16 194 4.8 14.5 0.00 0.00 0.00 57 1006.1
20260505014006 16 126 3.2 9.7 0.00 0.00 0.00 56 1006.0
20260505012507 16 215 3.2 8.0 0.00 0.00 0.00 55 1006.1
20260505011005 15 180 1.6 6.4 0.00 0.00 0.00 58 1006.0
20260505005504 15 275 1.6 1.6 0.00 0.00 0.00 58 1006.0
20260505003751 15 161 1.6 3.2 0.00 0.00 0.00 59 1005.9
20260505002252 17 161 1.6 3.2 0.00 0.00 0.00 56 1005.9
20260505000750 18 161 0.0 3.2 0.00 0.00 0.00 49 1005.9
20260504235251 19 191 0.0 3.2 0.00 0.00 0.00 46 1005.7
20260504233747 20 185 3.2 6.4 0.00 0.00 0.00 43 1005.6
20260504232250 21 208 3.2 9.7 0.00 0.00 0.00 43 1005.5
20260504230743 21 189 4.8 12.9 0.00 0.00 0.00 41 1005.4
20260504230530 21 279 4.8 12.9 0.00 0.00 0.00 41 1005.7
20260504225253 21 226 4.8 11.3 0.00 0.00 0.00 41 1005.6
20260504222934 21 268 6.4 20.9 0.00 0.00 0.00 39 1005.7
20260504220743 21 175 6.4 22.5 0.00 0.00 0.00 40 1005.8
20260504215955 21 181 9.7 30.6 0.00 0.00 0.00 41 1005.9
20260504214414 21 186 11.3 30.6 0.00 0.00 0.00 41 1006.0
20260504212927 21 181 8.0 27.4 0.00 0.00 0.00 45 1006.0
20260504210725 21 169 11.3 24.1 0.00 0.00 0.00 43 1006.1
20260504205933 20 285 11.3 29.0 0.00 0.00 0.00 43 1006.1
20260504203724 21 238 12.9 27.4 0.00 0.00 0.00 43 1006.1
20260504202223 20 227 12.9 37.0 0.00 0.00 0.00 46 1006.1
20260504200725 20 265 16.1 38.6 0.00 0.00 0.00 47 1006.5
20260504195222 20 259 9.7 25.7 0.00 0.00 0.00 49 1006.7
20260504193722 20 188 9.7 24.1 0.00 0.00 0.00 48 1007.0
20260504192220 20 182 11.3 32.2 0.00 0.00 0.00 49 1007.1
20260504190719 19 262 9.7 29.0 0.00 0.00 0.00 53 1007.3
20260504185219 19 281 11.3 29.0 0.00 0.00 0.00 51 1007.4
20260504183718 18 198 12.9 29.0 0.00 0.00 0.00 54 1007.7
20260504182220 18 334 12.9 32.2 0.00 0.00 0.00 53 1007.6
20260504180718 19 173 11.3 29.0 0.00 0.00 0.00 53 1007.6
20260504175217 18 132 12.9 29.0 0.00 0.00 0.00 56 1007.8
20260504173719 18 278 14.5 29.0 0.00 0.00 0.00 57 1007.8
20260504172925 18 184 12.9 29.0 0.00 0.00 0.00 56 1007.8
20260504171433 17 269 12.9 48.3 0.00 0.00 0.00 57 1007.8
20260504160445 16 169 11.3 22.5 0.00 0.00 0.00 58 1008.4
20260504150444 14 17 11.3 29.0 0.00 0.00 0.00 60 1008.9
20260504140442 13 201 9.7 29.0 0.00 0.00 0.00 61 1009.4
20260504130436 11 194 9.7 24.1 0.00 0.00 0.00 62 1009.6